Location: Buch
(49.7331°N, 12.1098°E)
Time: 00:17:36
(UTC+00:00)

USA 305 - Pass Details

Date: 12 May 2021
Orbit: 567 x 573 km, 54.0° (Epoch: 07 May)

Event Time Altitude Azimuth Distance (km) Brightness Sun altitude
Rises 20:23:27 0° 295° (WNW) 2,775 7.7 -12.8°
Reaches altitude 10° 20:25:44 10° 292° (WNW) 1,875 6.5 -13.1°
Maximum altitude 20:29:54 56° 214° (SW) 682 3.1 -13.5°
Enters shadow 20:32:22 23° 144° (SE) 1,235 4.0 -13.7°
